Flight Track Log - Related Links

Times and Time Zones

All times are in EDT time to prevent confusion due to time zone crossing. See the UAL33 flight status page for this flight to view local times or setup timezone preferences in your user account.

Time Position Orientation Groundspeed Altitude Reporting Facility
EDT Latitude Longitude Course Direction KTS MPH feet Rate Location/Type
Fri 09:46:17 PM 41.9780 -87.9150 323° Northwest 14 16  Level FlightAware ADS-B
Fri 09:47:00 PM 41.9790 -87.9160 323° Northwest 24 28 191 Level FlightAware ADS-B
Fri 09:47:30 PM 41.9800 -87.9170 323° Northwest 17 20 221 Level FlightAware ADS-B
Fri 09:47:58 PM 41.9800 -87.9180 270° West 19 22 249 Level FlightAware ADS-B
Fri 09:48:13 PM 41.9810 -87.9180 360° North 20 23 282 Level FlightAware ADS-B
Fri 09:48:39 PM 41.9820 -87.9180 360° North 13 15 303 Level FlightAware ADS-B
Fri 09:49:51 PM 41.9830 -87.9180 360° North 18 21 349 Level FlightAware ADS-B
Fri 09:50:21 PM 41.9840 -87.9180 360° North 23 26 600 Level FlightAware ADS-B
Fri 09:51:01 PM 41.9840 -87.9130 90° East 76 87 857 Level FlightAware ADS-B
Fri 09:51:31 PM 41.9840 -87.8880 90° East 157 181 1,000 2,286 Climbing FlightAware ADS-B
Fri 09:51:43 PM 41.9800 -87.8780 118° Southeast 157 181 1,600 2,195 Climbing FlightAware ADS-B
Fri 09:52:12 PM 41.9620 -87.8570 139° Southeast 205 236 2,500 2,316 Climbing FlightAware ADS-B
Fri 09:52:40 PM 41.9390 -87.8280 137° Southeast 251 289 3,800 2,538 Climbing FlightAware ADS-B
Fri 09:53:04 PM 41.9180 -87.8010 136° Southeast 270 311 4,700 1,222 Climbing FlightAware ADS-B
Fri 09:53:34 PM 41.8900 -87.7710 141° Southeast 270 311 4,900 273 Climbing FlightAware ADS-B
Fri 09:53:48 PM 41.8720 -87.7660 168° South 269 310 4,900  Level FlightAware ADS-B
Fri 09:54:16 PM 41.8370 -87.7630 176° South 268 308 4,900 310 Level FlightAware ADS-B
Fri 09:54:46 PM 41.8000 -87.7600 177° South 270 311 5,200 2,561 Climbing FlightAware ADS-B
Fri 09:55:38 PM 41.7390 -87.7830 196° South 274 315 8,400 3,574 Climbing FlightAware ADS-B
Fri 09:56:20 PM 41.7140 -87.8470 242° Southwest 288 331 10,800 3,628 Climbing FlightAware ADS-B
Fri 09:57:04 PM 41.6810 -87.9130 236° Southwest 310 357 13,600 3,500 Climbing FlightAware ADS-B
Fri 09:57:20 PM 41.6590 -87.9280 207° Southwest 340 391 14,300 2,897 Climbing FlightAware ADS-B
Fri 09:58:02 PM 41.5940 -87.9540 197° South 364 419 16,400 3,075 Climbing FlightAware ADS-B
Fri 09:58:40 PM 41.5300 -87.9790 196° South 383 441 18,400 3,143 Climbing FlightAware ADS-B
Fri 09:59:26 PM 41.4500 -88.0110 197° South 400 460 20,800 3,073 Climbing FlightAware ADS-B
Fri 10:00:02 PM 41.3850 -88.0380 197° South 412 474 22,600 2,929 Climbing FlightAware ADS-B
Fri 10:00:50 PM 41.2960 -88.0680 194° South 425 489 24,900 2,930 Climbing FlightAware ADS-B
Fri 10:01:28 PM 41.2220 -88.0920 194° South 432 497 26,800 2,700 Climbing FlightAware ADS-B
Fri 10:02:10 PM 41.1370 -88.1160 192° South 444 511 28,500 2,318 Climbing FlightAware ADS-B
Fri 10:02:56 PM 41.0490 -88.1640 202° Southwest 451 519 30,200 2,163 Climbing FlightAware ADS-B
Fri 10:03:36 PM 40.9760 -88.2140 207° Southwest 459 528 31,600 2,214 Climbing FlightAware ADS-B
Fri 10:04:20 PM 40.8920 -88.2730 208° Southwest 461 531 33,300 2,071 Climbing FlightAware ADS-B
Fri 10:05:00 PM 40.8150 -88.3260 208° Southwest 467 537 34,500 1,756 Climbing FlightAware ADS-B
Fri 10:05:42 PM 40.7360 -88.3810 208° Southwest 471 542 35,700 2,023 Climbing FlightAware ADS-B
Fri 10:06:26 PM 40.6520 -88.4390 208° Southwest 465 535 37,400 2,163 Climbing FlightAware ADS-B
Fri 10:07:08 PM 40.5710 -88.4950 208° Southwest 458 527 38,800 1,800 Climbing FlightAware ADS-B
Fri 10:07:46 PM 40.5010 -88.5420 207° Southwest 454 522 39,800 900 Climbing FlightAware ADS-B
Fri 10:08:28 PM 40.4220 -88.5960 207° Southwest 451 519 40,000 138 Climbing FlightAware ADS-B
Fri 10:09:13 PM 40.3380 -88.6540 208° Southwest 450 518 40,000  Level FlightAware ADS-B
Fri 10:09:51 PM 40.2750 -88.6960 207° Southwest 451 519 40,000  Level FlightAware ADS-B
Fri 10:10:27 PM 40.2020 -88.7460 208° Southwest 450 518 40,000  Level FlightAware ADS-B
Fri 10:11:33 PM 40.0800 -88.8280 207° Southwest 456 525 40,000  Level FlightAware ADS-B
Fri 10:12:18 PM 39.9970 -88.8840 207° Southwest 457 526 40,000  Level FlightAware ADS-B
Fri 10:13:00 PM 39.9170 -88.9380 207° Southwest 459 528 40,000  Level FlightAware ADS-B
Fri 10:13:40 PM 39.8390 -88.9900 207° Southwest 460 529 40,000  Level FlightAware ADS-B
Fri 10:14:24 PM 39.7570 -89.0450 207° Southwest 458 527 40,000  Level FlightAware ADS-B
Fri 10:15:02 PM 39.6850 -89.0930 207° Southwest 461 531 40,000  Level FlightAware ADS-B
Fri 10:15:58 PM 39.5870 -89.1580 207° Southwest 464 534 40,000  Level FlightAware ADS-B
Fri 10:16:40 PM 39.4970 -89.2180 207° Southwest 466 536 40,000  Level FlightAware ADS-B
Fri 10:17:24 PM 39.4130 -89.2730 207° Southwest 468 539 40,000  Level FlightAware ADS-B
Fri 10:18:05 PM 39.3350 -89.3240 207° Southwest 468 539 40,000  Level FlightAware ADS-B
Fri 10:18:48 PM 39.2520 -89.3790 207° Southwest 467 537 40,000  Level FlightAware ADS-B
Fri 10:19:26 PM 39.1790 -89.4270 207° Southwest 468 539 40,000  Level FlightAware ADS-B
Fri 10:20:07 PM 39.1010 -89.4780 207° Southwest 467 537 40,000  Level FlightAware ADS-B
Fri 10:20:51 PM 39.0150 -89.5340 207° Southwest 465 535 40,000  Level FlightAware ADS-B
Fri 10:21:46 PM 38.9120 -89.6010 207° Southwest 460 529 40,000  Level FlightAware ADS-B
Fri 10:22:33 PM 38.8320 -89.6510 206° Southwest 459 528 40,000  Level FlightAware ADS-B
Fri 10:23:15 PM 38.7410 -89.7110 207° Southwest 458 527 40,000  Level FlightAware ADS-B
Fri 10:23:39 PM 38.6950 -89.7410 207° Southwest 458 527 40,000  Level FlightAware ADS-B
Fri 10:24:25 PM 38.6190 -89.7890 206° Southwest 457 526 40,000  Level FlightAware ADS-B
Fri 10:25:05 PM 38.5330 -89.8450 207° Southwest 461 531 40,000  Level FlightAware ADS-B
Fri 10:26:02 PM 38.4410 -89.9030 206° Southwest 462 532 40,000  Level FlightAware ADS-B
Fri 10:26:42 PM 38.3500 -89.9620 207° Southwest 461 531 40,000  Level FlightAware ADS-B
Fri 10:27:24 PM 38.2680 -90.0140 206° Southwest 462 532 40,000  Level FlightAware ADS-B
Fri 10:28:00 PM 38.2090 -90.0510 206° Southwest 462 532 40,000  Level FlightAware ADS-B
Fri 10:28:44 PM 38.1160 -90.1110 207° Southwest 461 531 40,000  Level FlightAware ADS-B
Fri 10:29:29 PM 38.0270 -90.1670 206° Southwest 462 532 40,000  Level FlightAware ADS-B
Fri 10:30:08 PM 37.9630 -90.2070 206° Southwest 462 532 40,000  Level FlightAware ADS-B
Fri 10:31:07 PM 37.8500 -90.2780 206° Southwest 462 532 40,000  Level FlightAware ADS-B
Fri 10:31:52 PM 37.7630 -90.3330 207° Southwest 463 533 40,000  Level FlightAware ADS-B
Fri 10:32:34 PM 37.6830 -90.3830 206° Southwest 462 532 40,000  Level FlightAware ADS-B
Fri 10:33:10 PM 37.6240 -90.4190 206° Southwest 462 532 40,000  Level FlightAware ADS-B
Fri 10:33:59 PM 37.5440 -90.4680 206° Southwest 462 532 40,000  Level FlightAware ADS-B
Fri 10:34:35 PM 37.4850 -90.5040 206° Southwest 462 532 40,000  Level FlightAware ADS-B
Fri 10:35:23 PM 37.4070 -90.5520 206° Southwest 462 532 40,000  Level FlightAware ADS-B
Fri 10:36:02 PM 37.2750 -90.6370 207° Southwest 463 533 40,000  Level FlightAware ADS-B
Fri 10:36:46 PM 37.1890 -90.6900 206° Southwest 466 536 40,000  Level FlightAware ADS-B
Fri 10:37:26 PM 37.1120 -90.7370 206° Southwest 465 535 40,000  Level FlightAware ADS-B
Fri 10:38:08 PM 37.0320 -90.7860 206° Southwest 467 537 40,000  Level FlightAware ADS-B
Fri 10:38:54 PM 36.9370 -90.8320 201° Southwest 471 542 40,000  Level FlightAware ADS-B
Fri 10:39:31 PM 36.8630 -90.8610 197° South 469 540 40,000  Level FlightAware ADS-B
Fri 10:40:18 PM 36.7650 -90.9000 198° South 469 540 40,000  Level FlightAware ADS-B
Fri 10:40:58 PM 36.6810 -90.9330 197° South 468 539 40,000  Level FlightAware ADS-B
Fri 10:41:38 PM 36.6000 -90.9650 198° South 468 539 40,000  Level FlightAware ADS-B
Fri 10:42:20 PM 36.5130 -90.9990 197° South 468 539 40,000  Level FlightAware ADS-B
Fri 10:43:02 PM 36.4260 -91.0330 197° South 469 540 40,000  Level FlightAware ADS-B
Fri 10:43:46 PM 36.3340 -91.0690 197° South 469 540 40,000  Level FlightAware ADS-B
Fri 10:44:28 PM 36.2460 -91.1030 197° South 467 537 40,000  Level FlightAware ADS-B
Fri 10:45:44 PM 36.1130 -91.1550 198° South 466 536 40,000  Level FlightAware ADS-B
Fri 10:46:25 PM 36.0410 -91.1820 197° South 466 536 40,000  Level FlightAware ADS-B
Fri 10:47:06 PM 35.9290 -91.2260 198° South 467 537 40,000  Level FlightAware ADS-B
Fri 10:47:50 PM 35.8310 -91.2640 197° South 465 535 40,000  Level FlightAware ADS-B
Fri 10:48:30 PM 35.7470 -91.2960 197° South 466 536 40,000  Level FlightAware ADS-B
Fri 10:49:10 PM 35.6660 -91.3270 197° South 465 535 40,000  Level FlightAware ADS-B
Fri 10:49:54 PM 35.5870 -91.3570 197° South 465 535 40,000  Level FlightAware ADS-B
Fri 10:50:36 PM 35.4900 -91.3940 197° South 462 532 40,000  Level FlightAware ADS-B
Fri 10:51:21 PM 35.4120 -91.4230 197° South 463 533 40,000  Level FlightAware ADS-B
Fri 10:51:57 PM 35.3490 -91.4470 197° South 463 533 40,000  Level FlightAware ADS-B
Fri 10:52:41 PM 35.2450 -91.4870 197° South 464 534 40,000  Level FlightAware ADS-B
Fri 10:53:18 PM 35.1800 -91.5110 197° South 464 534 40,000  Level FlightAware ADS-B
Fri 10:54:06 PM 35.0970 -91.5420 197° South 464 534 40,000  Level FlightAware ADS-B
Fri 10:54:44 PM 35.0300 -91.5670 197° South 464 534 40,000  Level FlightAware ADS-B
Fri 10:55:39 PM 34.9340 -91.6030 197° South 464 534 40,000  Level FlightAware ADS-B
Fri 10:56:28 PM 34.8490 -91.6350 197° South 464 534 40,000  Level FlightAware ADS-B
Fri 10:57:04 PM 34.7860 -91.6580 197° South 464 534 40,000  Level FlightAware ADS-B
Fri 10:57:53 PM 34.7010 -91.6900 197° South 464 534 40,000  Level FlightAware ADS-B
Fri 10:58:27 PM 34.6410 -91.7120 197° South 464 534 40,000  Level FlightAware ADS-B
Fri 10:59:16 PM 34.5560 -91.7440 197° South 464 534 40,000  Level FlightAware ADS-B
Fri 10:59:53 PM 34.4910 -91.7680 197° South 464 534 40,000  Level FlightAware ADS-B
Fri 11:00:39 PM 34.4110 -91.7980 197° South 464 534 40,000  Level FlightAware ADS-B
Fri 11:01:25 PM 34.3310 -91.8270 197° South 464 534 40,000  Level FlightAware ADS-B
Fri 11:02:01 PM 34.2680 -91.8500 197° South 464 534 40,000  Level FlightAware ADS-B
Fri 11:02:20 PM 34.0606 -91.9317 197° South 463 533 40,000  Level Memphis Center
Fri 11:04:01 PM 33.8442 -92.0097 197° South 444 511 40,000  Level Fort Worth Center
Fri 11:05:01 PM 33.7186 -92.0522 196° South 455 524 40,000  Level Fort Worth Center
Fri 11:06:01 PM 33.5975 -92.0997 198° South 455 524 40,000  Level Fort Worth Center
Fri 11:07:01 PM 33.4744 -92.1444 197° South 463 533 40,000  Level Fort Worth Center
Fri 11:08:01 PM 33.3511 -92.1939 199° South 470 541 40,000  Level Fort Worth Center
Fri 11:09:01 PM 33.2767 -92.3078 232° Southwest 434 499 40,000  Level Fort Worth Center
Fri 11:14:28 PM 32.8948 -92.9789 232° Southwest 439 505 40,000  Level FlightAware ADS-B
Fri 11:15:09 PM 32.8481 -93.0609 236° Southwest 436 502 40,000  Level FlightAware ADS-B
Fri 11:15:40 PM 32.8132 -93.1219 236° Southwest 437 503 40,000  Level FlightAware ADS-B
Fri 11:16:14 PM 32.7748 -93.1891 236° Southwest 437 503 40,000  Level FlightAware ADS-B
Fri 11:16:45 PM 32.7390 -93.2515 236° Southwest 438 504 40,000  Level FlightAware ADS-B
Fri 11:17:16 PM 32.7036 -93.3134 236° Southwest 436 502 40,000  Level FlightAware ADS-B
Fri 11:17:49 PM 32.6663 -93.3782 236° Southwest 436 502 40,000  Level FlightAware ADS-B
Fri 11:18:19 PM 32.6320 -93.4377 236° Southwest 435 501 40,000  Level FlightAware ADS-B
Fri 11:18:59 PM 32.5870 -93.5158 236° Southwest 434 499 40,000  Level FlightAware ADS-B
Fri 11:19:38 PM 32.5424 -93.5929 236° Southwest 434 499 40,000  Level FlightAware ADS-B
Fri 11:20:08 PM 32.5079 -93.6523 235° Southwest 436 502 40,000  Level FlightAware ADS-B
Fri 11:20:41 PM 32.4709 -93.7161 236° Southwest 436 502 40,000  Level FlightAware ADS-B
Fri 11:21:11 PM 32.4367 -93.7750 235° Southwest 434 499 40,000  Level FlightAware ADS-B
Fri 11:22:35 PM 32.3408 -93.9396 235° Southwest 434 499 40,000  Level FlightAware ADS-B
Fri 11:23:36 PM 32.2708 -94.0592 235° Southwest 435 501 40,000  Level FlightAware ADS-B
Fri 11:25:12 PM 32.1619 -94.2447 235° Southwest 433 498 40,000  Level FlightAware ADS-B
Fri 11:26:13 PM 32.0918 -94.3635 235° Southwest 434 499 40,000  Level FlightAware ADS-B
Fri 11:27:14 PM 32.0220 -94.4816 235° Southwest 433 498 40,000  Level FlightAware ADS-B
Fri 11:27:46 PM 31.9848 -94.5442 235° Southwest 434 499 40,000  Level FlightAware ADS-B
Fri 11:28:47 PM 31.9152 -94.6612 235° Southwest 433 498 40,000  Level FlightAware ADS-B
Fri 11:30:18 PM 31.8104 -94.8370 235° Southwest 434 499 40,000  Level FlightAware ADS-B
Fri 11:31:19 PM 31.7401 -94.9543 235° Southwest 434 499 40,000  Level FlightAware ADS-B
Fri 11:32:20 PM 31.6697 -95.0716 235° Southwest 436 502 40,000 -103 Level FlightAware ADS-B
Fri 11:33:15 PM 31.6035 -95.1764 232° Southwest 435 501 39,800 -718 Descending FlightAware ADS-B
Fri 11:34:17 PM 31.5255 -95.2864 230° Southwest 423 487 38,600 -1,290 Descending FlightAware ADS-B
Fri 11:34:48 PM 31.4869 -95.3405 230° Southwest 419 482 37,800 -2,413 Descending FlightAware ADS-B
Fri 11:35:49 PM 31.4087 -95.4503 230° Southwest 442 509 34,900 -2,505 Descending FlightAware ADS-B
Fri 11:36:19 PM 31.3689 -95.5061 230° Southwest 440 506 34,000 -2,440 Descending FlightAware ADS-B
Fri 11:37:20 PM 31.2873 -95.6192 230° Southwest 452 520 31,200 -2,478 Descending FlightAware ADS-B
Fri 11:37:51 PM 31.2460 -95.6766 230° Southwest 449 517 30,200 -2,226 Descending FlightAware ADS-B
Fri 11:38:22 PM 31.2042 -95.7346 230° Southwest 454 522 28,900 -2,110 Descending FlightAware ADS-B
Fri 11:39:22 PM 31.1218 -95.8491 230° Southwest 454 522 27,000 -1,608 Descending FlightAware ADS-B
Fri 11:39:59 PM 31.0735 -95.9190 234° Southwest 447 514 26,300 -968 Descending FlightAware ADS-B
Fri 11:40:24 PM 31.0520 -95.9717 247° West 428 493 26,000 -209 Descending FlightAware ADS-B
Fri 11:41:25 PM 31.0123 -96.1004 250° West 414 476 26,000  Level FlightAware ADS-B
Fri 11:41:56 PM 30.9924 -96.1643 250° West 415 478 26,000  Level FlightAware ADS-B
Fri 11:42:05 PM 30.9865 -96.1827 249° West 416 479 26,000 -333 Level FlightAware ADS-B
Fri 11:42:14 PM 30.9776 -96.2019 239° Southwest 413 475 25,900 -857 Descending FlightAware ADS-B
Fri 11:42:19 PM 30.9723 -96.2105 234° Southwest 412 474 25,800 -1,565 Descending FlightAware ADS-B
Fri 11:42:37 PM 30.9467 -96.2368 214° Southwest 409 471 25,300 -1,826 Descending FlightAware ADS-B
Fri 11:42:42 PM 30.9384 -96.2420 208° Southwest 408 470 25,100 -1,500 Descending FlightAware ADS-B
Fri 11:42:53 PM 30.9190 -96.2505 197° South 405 466 24,900 -1,364 Descending FlightAware ADS-B
Fri 11:43:04 PM 30.8987 -96.2541 185° South 403 464 24,600 -1,714 Descending FlightAware ADS-B
Fri 11:43:14 PM 30.8798 -96.2533 176° South 398 458 24,300 -2,455 Descending FlightAware ADS-B
Fri 11:43:26 PM 30.8594 -96.2479 164° South 397 457 23,700 -3,000 Descending FlightAware ADS-B
Fri 11:43:30 PM 30.8519 -96.2445 159° South 396 456 23,500 -2,571 Descending FlightAware ADS-B
Fri 11:43:40 PM 30.8360 -96.2342 148° Southeast 393 452 23,100 -3,000 Descending FlightAware ADS-B
Fri 11:44:10 PM 30.7944 -96.1944 141° Southeast 384 442 21,500 -2,824 Descending FlightAware ADS-B
Fri 11:44:31 PM 30.7660 -96.1665 140° Southeast 374 430 20,700 -2,432 Descending FlightAware ADS-B
Fri 11:44:47 PM 30.7436 -96.1488 148° Southeast 368 423 20,000 -2,609 Descending FlightAware ADS-B
Fri 11:44:54 PM 30.7327 -96.1426 154° Southeast 365 420 19,700 -2,432 Descending FlightAware ADS-B
Fri 11:45:24 PM 30.6854 -96.1221 160° South 358 412 18,500 -2,300 Descending FlightAware ADS-B
Fri 11:45:54 PM 30.6399 -96.1022 159° South 348 400 17,400 -2,164 Descending FlightAware ADS-B
Fri 11:46:25 PM 30.5950 -96.0815 158° South 343 395 16,300 -1,979 Descending FlightAware ADS-B
Fri 11:47:28 PM 30.5013 -96.0419 158° South 337 388 14,300 -1,870 Descending FlightAware ADS-B
Fri 11:47:42 PM 30.4826 -96.0286 146° Southeast 334 384 13,900 -1,541 Descending FlightAware ADS-B
Fri 11:48:42 PM 30.4127 -95.9619 141° Southeast 317 365 12,400 -1,421 Descending FlightAware ADS-B
Fri 11:49:36 PM 30.3531 -95.9059 141° Southeast 303 349 11,200 -1,273 Descending FlightAware ADS-B
Fri 11:49:48 PM 30.3392 -95.8943 144° Southeast 296 341 11,000 -750 Descending FlightAware ADS-B
Fri 11:50:00 PM 30.3253 -95.8845 149° Southeast 289 333 10,900 -938 Descending FlightAware ADS-B
Fri 11:50:52 PM 30.2661 -95.8486 152° Southeast 275 316 10,000 -1,075 Descending FlightAware ADS-B
Fri 11:51:07 PM 30.2489 -95.8382 152° Southeast 273 314 9,700 -1,400 Descending FlightAware ADS-B
Fri 11:51:22 PM 30.2317 -95.8277 152° Southeast 272 313 9,300 -1,588 Descending FlightAware ADS-B
Fri 11:51:41 PM 30.2109 -95.8145 150° Southeast 267 307 8,800 -1,615 Descending FlightAware ADS-B
Fri 11:51:48 PM 30.2041 -95.8093 147° Southeast 265 305 8,600 -2,143 Descending FlightAware ADS-B
Fri 11:51:55 PM 30.1970 -95.8033 144° Southeast 263 303 8,300 -2,500 Descending FlightAware ADS-B
Fri 11:52:00 PM 30.1926 -95.7993 142° Southeast 264 304 8,100 -2,441 Descending FlightAware ADS-B
Fri 11:52:54 PM 30.1414 -95.7508 141° Southeast 262 302 5,900 -2,348 Descending FlightAware ADS-B
Fri 11:53:09 PM 30.1273 -95.7375 141° Southeast 253 291 5,400 -1,800 Descending FlightAware ADS-B
Fri 11:53:24 PM 30.1138 -95.7247 141° Southeast 243 280 5,000 -1,385 Descending FlightAware ADS-B
Fri 11:53:35 PM 30.1046 -95.7160 141° Southeast 235 270 4,800 -1,125 Descending FlightAware ADS-B
Fri 11:53:40 PM 30.1005 -95.7119 139° Southeast 231 266 4,700 -1,500 Descending FlightAware ADS-B
Fri 11:53:43 PM 30.0980 -95.7090 135° Southeast 231 266 4,600 -2,250 Descending FlightAware ADS-B
Fri 11:53:48 PM 30.0948 -95.7050 133° Southeast 230 265 4,400 -1,800 Descending FlightAware ADS-B
Fri 11:53:53 PM 30.0916 -95.7005 129° Southeast 229 264 4,300 -1,500 Descending FlightAware ADS-B
Fri 11:54:00 PM 30.0868 -95.6930 126° Southeast 230 265 4,100 -1,636 Descending FlightAware ADS-B
Fri 11:54:15 PM 30.0782 -95.6780 124° Southeast 229 264 3,700 -1,548 Descending FlightAware ADS-B
Fri 11:54:31 PM 30.0684 -95.6617 125° Southeast 231 266 3,300 -1,200 Descending FlightAware ADS-B
Fri 11:54:45 PM 30.0596 -95.6472 125° Southeast 228 262 3,100 -600 Descending FlightAware ADS-B
Fri 11:55:01 PM 30.0506 -95.6321 125° Southeast 226 260 3,000 -200 Descending FlightAware ADS-B
Fri 11:55:15 PM 30.0422 -95.6181 125° Southeast 216 249 3,000  Level FlightAware ADS-B
Fri 11:55:46 PM 30.0264 -95.5915 124° Southeast 187 215 3,000  Level FlightAware ADS-B
Fri 11:56:02 PM 30.0184 -95.5783 125° Southeast 183 211 3,000  Level FlightAware ADS-B
Fri 11:56:16 PM 30.0116 -95.5668 124° Southeast 183 211 3,000  Level FlightAware ADS-B
Fri 11:56:31 PM 30.0043 -95.5546 125° Southeast 183 211 3,000  Level FlightAware ADS-B
Fri 11:56:44 PM 29.9981 -95.5442 125° Southeast 181 208 3,000  Level FlightAware ADS-B
Fri 11:56:47 PM 29.9967 -95.5417 123° Southeast 182 209 3,000  Level FlightAware ADS-B
Fri 11:56:51 PM 29.9951 -95.5383 119° Southeast 181 208 3,000  Level FlightAware ADS-B
Fri 11:56:55 PM 29.9941 -95.5349 109° East 181 208 3,000  Level FlightAware ADS-B
Fri 11:56:59 PM 29.9933 -95.5309 103° East 182 209 3,000  Level FlightAware ADS-B
Fri 11:57:04 PM 29.9931 -95.5267 93° East 182 209 3,000 -857 Level FlightAware ADS-B
Fri 11:57:20 PM 29.9930 -95.5104 90° East 188 216 2,700 -1,313 Descending FlightAware ADS-B
Fri 11:57:36 PM 29.9932 -95.4943 89° East 190 219 2,300 -1,125 Descending FlightAware ADS-B
Fri 11:57:52 PM 29.9933 -95.4785 90° East 183 211 2,100 -938 Descending FlightAware ADS-B
Fri 11:58:08 PM 29.9933 -95.4635 90° East 175 201 1,800 -828 Descending FlightAware ADS-B
Fri 11:58:21 PM 29.9934 -95.4516 89° East 166 191 1,700 -857 Descending FlightAware ADS-B
Fri 11:58:36 PM 29.9933 -95.4383 90° East 158 182 1,400 -1,043 Descending FlightAware ADS-B
Fri 11:58:44 PM 29.9933 -95.4316 90° East 151 174 1,300 -750 Descending FlightAware ADS-B
Fri 11:59:00 PM 29.9933 -95.4197 90° East 146 168 1,100 -581 Descending FlightAware ADS-B
Fri 11:59:15 PM 29.9933 -95.4080 90° East 143 165 1,000 -581 Descending FlightAware ADS-B
Fri 11:59:31 PM 29.9934 -95.3961 89° East 142 163 800 -774 Descending FlightAware ADS-B
Fri 11:59:46 PM 29.9934 -95.3842 90° East 141 162 600 -727 Descending FlightAware ADS-B
Sat 12:00:04 AM 29.9935 -95.3711 89° East 141 162 400 -857 Descending FlightAware ADS-B
Sat 12:00:14 AM 29.9935 -95.3629 90° East 141 162 200 -667 Descending FlightAware ADS-B
Sat 12:00:31 AM 29.9935 -95.3508 90° East 142 163 100 -353 Descending FlightAware ADS-B

Login

Don't have an account? Register now (free) for customized features, flight alerts, and more!